Wind_Speed
14 12 5 3 4 6 2 2 0 4 2 4 4 13 13 8 8 3 9 10 12 13 14 13 12 10 11 12 14 15 15 16 16 16 15 15 15 15 14 13 12 11 10 9 9 8 7 7 7
10 8 2 3 5 4 2 2 3 4 5 11 6 11 15 6 14 10 12 14 13 13 14 13 13 13 13 14 15 16 16 16 16 15 15 14 14 13 12 11 10 9 8 7 6 6 6 6 7
5 4 1 4 3 4 5 4 6 11 17 9 6 2 12 5 7 8 9 16 14 14 14 14 14 15 15 15 15 15 15 14 14 14 13 12 12 10 9 9 9 9 9 9 9 9 9 9 10
4 1 4 4 1 3 4 6 9 13 8 6 4 3 6 5 17 16 19 17 15 16 16 15 14 15 15 15 15 13 12 12 12 11 11 12 11 10 10 10 11 11 11 11 12 13 13 13 13
0 3 4 3 1 3 2 7 20 9 7 10 11 3 7 11 12 16 20 19 17 17 16 16 15 14 14 14 13 13 13 13 13 13 14 13 12 10 10 10 11 12 13 14 14 14 14 14 15
3 3 4 1 2 3 1 13 12 6 7 7 9 6 5 10 15 22 20 19 17 16 17 16 15 14 15 16 15 16 16 13 12 12 11 10 11 11 12 13 13 14 14 15 16 17 17 18 18
6 4 4 3 5 2 5 16 10 11 4 8 20 4 6 18 23 21 21 20 19 18 17 17 18 18 18 19 17 16 14 12 12 10 9 11 11 11 12 13 14 15 16 17 18 19 19 20 20
3 5 3 3 0 3 5 20 20 16 8 15 15 7 8 26 23 23 22 21 20 21 20 21 22 22 21 19 17 15 13 12 11 11 9 9 10 11 12 13 15 16 17 18 20 21 22 24 24
3 4 1 3 2 4 11 6 10 19 11 13 14 8 16 29 27 26 25 24 24 24 24 24 24 22 20 17 15 12 10 9 8 8 6 4 5 7 11 14 17 19 20 20 21 23 24 25 25
4 4 5 5 5 3 15 13 17 8 16 7 17 8 22 30 31 31 30 29 29 29 28 25 23 21 18 15 12 9 6 5 4 3 1 4 9 14 18 20 22 24 25 26 27 28 28 28 27
2 4 4 9 18 11 6 11 14 12 6 17 33 21 33 34 34 33 33 33 33 31 30 27 24 21 18 16 12 8 7 6 4 2 6 10 14 18 21 24 27 29 30 32 33 34 33 32 33
1 7 7 12 11 7 9 15 9 24 17 29 26 26 38 38 38 36 36 35 35 33 30 28 24 20 18 15 12 10 9 5 4 6 9 12 16 20 23 25 26 28 30 32 33 34 34 35 35
0 5 13 20 9 4 11 16 8 25 18 15 27 30 38 40 39 36 37 36 38 36 32 28 25 21 19 15 12 12 9 7 6 6 8 12 17 21 22 22 23 24 28 30 32 33 34 36 38
6 11 17 8 4 4 4 2 9 23 20 17 30 34 40 43 43 40 40 40 37 30 29 28 26 21 17 15 15 11 8 6 4 6 10 14 19 19 21 20 19 25 29 30 32 33 33 34 35
6 7 8 4 6 0 10 2 10 9 24 27 30 36 41 43 44 45 38 34 36 33 30 27 23 20 17 15 12 8 7 4 4 5 8 14 14 18 19 19 23 29 32 34 35 33 33 34 33
4 5 5 7 9 0 5 10 13 9 30 31 33 37 41 39 36 38 41 35 31 27 26 25 22 20 15 12 8 7 5 5 5 6 12 16 19 20 21 23 28 33 35 37 35 34 33 32 31
7 1 3 10 9 4 4 5 10 6 23 27 31 35 33 34 36 37 36 30 29 28 26 21 19 14 11 9 9 7 7 6 8 12 18 20 22 21 23 26 30 34 37 38 35 33 30 29 28
3 3 5 4 5 9 6 8 8 8 11 4 11 19 19 28 34 37 36 29 28 25 21 17 11 7 10 9 8 11 10 11 14 18 21 24 25 23 24 29 32 35 37 37 36 33 27 26 26
2 1 2 4 5 6 4 6 11 16 16 8 12 12 17 23 26 27 28 30 28 23 18 9 3 6 7 7 5 17 14 14 16 18 24 26 24 25 28 31 33 36 36 36 33 30 27 26 23
3 3 4 4 5 6 2 7 5 15 12 10 3 21 25 25 24 24 25 29 25 20 12 2 2 5 5 12 11 18 16 17 18 23 25 25 26 27 28 31 34 34 36 34 29 26 25 23 21
2 3 2 4 4 5 3 4 6 5 17 19 12 13 18 24 25 25 28 27 22 15 7 6 5 10 15 10 15 17 17 21 21 24 24 24 25 27 30 33 34 34 32 28 25 22 21 23 23
2 2 2 3 3 2 3 4 5 7 9 14 15 13 14 18 21 25 26 23 21 11 5 23 18 18 10 11 17 17 20 23 25 26 25 24 26 30 32 32 34 33 27 25 24 22 22 22 22
3 3 2 2 2 3 7 4 5 4 5 5 7 12 14 15 20 24 24 18 14 6 11 10 11 16 16 14 19 21 23 26 27 26 27 28 30 30 31 32 33 28 24 23 24 20 20 18 19
3 1 5 4 2 2 3 4 4 2 1 2 4 9 15 18 18 16 15 12 7 7 9 13 14 15 14 17 21 23 26 28 28 27 28 31 33 31 30 28 25 21 18 19 18 18 17 16 16
9 7 4 5 5 4 4 2 6 4 4 4 9 12 14 16 17 12 5 1 4 3 5 6 7 10 13 20 22 23 23 23 25 29 32 32 29 22 20 20 16 14 14 14 16 19 19 17 16
3 6 5 5 3 5 3 4 4 3 10 14 15 13 12 13 10 11 14 13 11 9 5 5 8 13 19 23 23 24 25 27 27 28 24 19 15 14 16 14 12 14 16 20 19 21 18 18 16
2 2 1 5 3 2 3 2 2 5 7 12 12 13 14 18 20 17 13 11 9 9 11 15 18 20 21 23 22 22 22 21 19 15 14 13 12 13 14 11 14 15 15 16 18 20 19 18 15
3 2 3 4 1 4 4 4 5 5 5 6 11 18 21 20 18 14 9 7 12 16 19 21 22 20 17 15 15 14 14 12 11 11 12 12 12 13 14 13 13 13 14 12 16 20 19 14 13
5 5 4 3 3 3 3 5 3 6 6 9 14 20 19 15 11 7 6 10 13 17 20 21 19 16 13 12 10 9 9 11 12 13 13 14 13 14 14 12 12 12 13 12 12 17 20 14 13
2 3 4 4 5 1 2 6 5 6 15 20 20 19 12 8 6 9 8 9 16 20 21 20 17 12 10 7 8 10 10 12 12 12 11 12 13 13 12 12 12 11 13 14 11 13 16 17 18
Wind_Direction
355 355 24 90 58 64 68 75 47 152 245 239 149 125 127 178 220 268 152 167 164 159 135 128 124 126 119 114 112 110 107 105 102 99 99 99 95 89 82 79 76 72 64 54 45 36 24 11 354
351 360 40 89 80 63 260 203 168 209 181 139 120 127 84 233 242 260 172 164 163 148 129 123 124 123 118 114 111 109 108 105 103 101 99 97 94 90 87 78 67 56 48 39 31 19 2 346 334
3 18 19 86 117 161 173 201 180 130 149 172 128 85 148 210 206 183 188 161 154 139 128 126 125 123 121 118 117 114 109 105 101 100 99 92 86 82 74 59 46 38 35 30 18 6 352 339 326
341 92 59 80 152 234 203 199 146 150 210 196 165 224 172 124 162 171 159 155 149 140 133 130 129 127 127 126 122 116 112 107 98 94 86 80 77 70 58 46 38 31 22 12 3 355 347 339 331
53 73 53 75 268 259 228 183 152 161 202 203 186 169 127 144 171 161 157 154 154 142 137 134 135 133 131 125 120 116 110 100 97 95 90 83 74 69 51 34 24 16 7 358 351 345 339 332 325
96 79 63 276 189 262 145 183 165 180 198 218 158 128 139 181 171 160 158 154 149 144 141 141 140 139 136 129 120 114 108 102 92 92 81 69 59 51 41 29 22 15 7 358 351 342 333 326 319
119 87 179 219 137 239 203 185 185 189 184 187 150 105 154 162 164 161 157 154 150 149 150 146 143 144 141 134 126 116 107 102 101 88 78 73 67 56 40 26 19 12 4 357 350 341 334 327 321
122 93 142 248 36 198 208 169 204 192 198 158 169 169 181 169 171 163 160 157 155 156 157 153 150 148 143 137 127 115 106 101 93 86 81 64 46 35 27 21 15 5 356 350 344 338 334 330 326
120 65 216 249 201 156 178 179 188 210 171 176 190 179 187 165 168 168 165 165 164 161 156 154 153 151 148 146 139 130 116 107 104 91 85 66 32 16 10 4 358 354 347 343 339 336 332 329 325
93 99 227 208 203 176 180 185 160 160 179 190 181 184 177 173 174 175 174 172 168 163 161 163 164 163 162 159 153 145 135 146 151 141 84 350 2 0 357 354 348 343 340 337 335 332 328 324 322
145 175 214 254 252 254 189 160 163 149 206 196 189 183 178 179 180 180 179 176 173 170 172 175 179 178 178 173 170 173 182 184 186 286 336 351 355 352 349 345 341 339 339 337 334 331 327 324 321
337 250 238 295 316 176 171 167 188 181 193 200 205 193 183 187 187 187 186 182 178 181 182 180 180 179 177 180 179 190 197 213 275 309 335 348 348 349 346 344 343 342 339 335 331 327 322 318 316
193 311 306 309 320 247 171 183 190 205 198 205 205 196 192 192 192 193 193 188 186 186 184 182 180 183 185 192 201 212 217 237 258 305 337 346 349 349 347 342 340 338 337 332 326 320 314 310 308
317 298 305 332 64 137 146 231 186 226 212 207 193 194 197 199 196 197 198 197 191 187 184 181 184 191 197 209 218 217 225 233 292 326 337 347 349 346 339 335 336 336 335 332 328 323 316 311 308
319 341 348 331 337 4 148 347 240 211 193 190 193 196 199 202 202 206 201 192 195 195 194 189 187 196 207 218 221 224 222 242 281 321 338 341 344 338 334 329 331 336 338 335 331 327 321 315 312
35 52 21 296 2 342 152 241 252 209 185 188 196 197 199 201 202 206 209 205 195 190 183 176 182 192 204 222 222 224 233 267 296 314 333 336 335 333 332 330 329 335 337 334 329 325 321 317 313
11 350 323 328 17 320 45 297 326 197 186 184 191 197 198 202 206 208 207 208 190 180 175 177 183 193 213 238 247 252 260 280 301 318 322 326 328 326 327 330 331 333 332 332 326 322 320 318 317
299 339 312 247 338 34 29 348 330 62 133 129 185 194 195 204 207 209 208 188 174 172 172 176 178 244 251 246 266 268 275 288 297 302 315 325 326 323 325 329 330 328 328 327 324 321 319 319 319
194 144 290 283 348 79 4 41 15 20 52 78 190 190 189 198 203 205 203 178 174 170 175 160 284 221 229 261 288 275 274 279 293 311 320 321 322 322 321 323 323 323 322 323 323 320 319 322 327
93 74 333 299 8 90 337 38 341 35 23 356 202 183 200 199 200 200 183 175 172 173 162 313 111 194 283 285 293 261 277 297 308 312 320 318 314 312 315 320 320 320 319 322 320 318 319 323 332
41 122 276 239 3 38 3 348 357 10 28 34 46 195 186 182 180 173 169 168 165 163 202 94 8 312 273 279 266 281 293 300 301 312 311 305 307 313 317 317 318 319 321 322 322 321 319 324 316
12 261 322 304 52 274 19 267 335 354 8 26 56 105 142 160 169 168 169 169 171 155 355 323 263 285 261 254 264 279 290 292 301 306 304 305 309 311 313 316 319 320 319 321 323 322 317 318 314
236 47 52 9 91 56 345 80 263 1 9 1 19 115 141 166 176 170 171 177 175 221 293 311 253 269 251 260 272 282 288 293 296 299 299 299 301 309 313 316 318 315 317 318 322 323 321 322 318
18 52 45 54 92 43 288 114 284 302 195 167 78 116 132 146 155 153 164 181 223 260 289 253 248 255 263 273 281 289 294 289 290 290 295 301 308 313 318 319 318 318 321 327 334 336 336 329 325
41 44 338 348 2 230 310 55 243 294 13 152 138 127 124 128 130 127 107 273 267 254 229 235 253 268 282 288 293 288 286 289 297 303 307 310 312 323 337 342 351 355 347 340 337 339 330 327 327
284 147 163 248 219 263 330 249 255 57 97 120 122 114 113 119 121 110 109 108 99 86 52 11 332 305 291 289 288 289 293 298 305 311 315 319 327 328 334 346 7 350 336 338 339 343 340 333 324
335 254 177 110 29 39 260 294 353 89 83 107 103 116 109 113 112 106 93 71 43 11 355 334 320 311 302 297 297 301 306 312 319 321 325 334 330 331 336 331 341 346 346 348 357 350 345 335 337
65 164 360 10 252 270 291 279 232 182 163 119 108 117 124 119 114 106 85 34 354 333 336 331 324 316 310 311 314 325 333 341 343 340 331 329 331 331 336 335 336 339 346 353 358 357 352 356 6
358 11 29 115 122 199 290 265 216 225 169 141 126 134 128 123 113 94 25 330 321 329 332 332 336 333 333 337 341 355 354 345 339 333 331 331 333 326 327 329 333 339 348 349 355 358 7 10 359
68 118 112 106 297 213 179 267 336 161 146 142 143 145 136 116 67 2 349 343 335 340 344 342 341 340 345 2 351 343 343 343 344 340 339 337 336 331 324 327 333 334 343 345 343 357 6 11 19
Height
1521 1519 1519 1520 1532 1539 1555 1547 1541 1545 1543 1540 1540 1540 1542 1546 1553 1554 1545 1545 1546 1546 1545 1546 1548 1551 1553 1554 1554 1555 1556 1556 1556 1556 1557 1557 1558 1559 1560 1560 1559 1559 1559 1559 1558 1557 1557 1556 1556
1521 1520 1520 1520 1543 1559 1557 1542 1542 1541 1539 1540 1543 1539 1537 1546 1546 1546 1547 1546 1547 1549 1548 1549 1550 1551 1554 1556 1557 1558 1558 1558 1558 1559 1559 1559 1559 1560 1561 1561 1561 1560 1559 1559 1558 1556 1556 1555 1554
1521 1520 1520 1528 1551 1555 1553 1541 1539 1538 1539 1541 1541 1541 1540 1540 1541 1544 1547 1548 1549 1550 1551 1552 1553 1554 1556 1558 1559 1560 1560 1561 1561 1560 1561 1561 1561 1561 1563 1562 1562 1561 1560 1559 1559 1557 1556 1555 1554
1520 1521 1523 1536 1541 1536 1536 1531 1537 1543 1542 1539 1539 1538 1540 1539 1538 1542 1546 1548 1550 1551 1552 1554 1556 1557 1558 1560 1560 1562 1562 1562 1563 1563 1563 1563 1562 1563 1564 1564 1562 1562 1561 1560 1559 1557 1556 1554 1553
1520 1520 1535 1541 1539 1532 1532 1529 1535 1542 1542 1538 1538 1537 1537 1539 1541 1544 1546 1548 1550 1552 1554 1555 1557 1558 1560 1561 1562 1563 1563 1565 1564 1565 1565 1565 1564 1564 1565 1564 1563 1562 1561 1560 1558 1556 1555 1553 1552
1519 1522 1543 1547 1539 1531 1530 1528 1532 1538 1540 1536 1537 1538 1541 1540 1543 1545 1547 1550 1551 1553 1555 1556 1558 1560 1562 1561 1563 1565 1565 1566 1567 1566 1566 1566 1566 1565 1564 1564 1563 1561 1560 1559 1556 1554 1552 1551 1549
1519 1528 1540 1537 1541 1535 1530 1530 1530 1531 1536 1537 1535 1537 1539 1541 1543 1546 1548 1549 1551 1554 1556 1557 1558 1561 1563 1562 1564 1565 1567 1567 1568 1568 1569 1567 1567 1565 1564 1564 1563 1561 1559 1558 1555 1553 1551 1549 1547
1518 1523 1535 1534 1535 1535 1525 1527 1528 1529 1533 1534 1534 1535 1538 1538 1542 1544 1547 1549 1551 1555 1556 1557 1558 1560 1562 1563 1565 1566 1568 1568 1569 1568 1569 1567 1566 1565 1563 1564 1562 1560 1558 1556 1554 1551 1548 1546 1543
1518 1532 1540 1529 1530 1527 1525 1527 1526 1528 1531 1531 1532 1532 1533 1538 1541 1545 1546 1549 1551 1555 1556 1557 1558 1559 1562 1564 1565 1567 1567 1567 1568 1567 1568 1567 1566 1564 1563 1562 1560 1558 1557 1555 1552 1549 1546 1544 1540
1518 1534 1528 1519 1517 1518 1521 1522 1524 1528 1530 1532 1531 1531 1533 1537 1539 1541 1545 1548 1550 1553 1556 1557 1557 1559 1561 1563 1564 1566 1566 1567 1566 1566 1565 1565 1564 1562 1561 1559 1558 1556 1554 1551 1549 1546 1543 1540 1536
1519 1526 1517 1512 1511 1512 1514 1519 1520 1524 1530 1525 1523 1527 1531 1535 1539 1542 1544 1547 1548 1551 1552 1553 1555 1557 1559 1560 1562 1562 1564 1564 1563 1563 1563 1563 1563 1561 1559 1557 1554 1552 1549 1547 1544 1541 1538 1535 1531
1520 1515 1513 1507 1507 1509 1511 1512 1516 1518 1516 1520 1523 1524 1528 1532 1534 1538 1541 1544 1546 1548 1549 1551 1555 1557 1558 1559 1561 1562 1561 1561 1561 1562 1562 1562 1560 1558 1557 1554 1551 1549 1546 1543 1540 1537 1533 1529 1525
1517 1513 1510 1507 1505 1507 1507 1507 1511 1512 1515 1517 1520 1523 1525 1530 1534 1538 1540 1542 1543 1545 1548 1551 1554 1557 1558 1560 1560 1560 1560 1561 1561 1561 1560 1559 1558 1556 1554 1552 1550 1547 1544 1541 1536 1532 1528 1523 1519
1515 1512 1509 1505 1505 1507 1509 1510 1511 1507 1513 1515 1517 1520 1524 1526 1530 1534 1537 1538 1546 1555 1556 1555 1555 1557 1559 1560 1560 1561 1562 1561 1560 1559 1558 1557 1556 1554 1552 1550 1548 1545 1542 1537 1532 1528 1523 1518 1513
1515 1516 1509 1507 1505 1506 1506 1513 1511 1506 1508 1511 1515 1517 1521 1525 1528 1529 1539 1548 1547 1549 1552 1554 1558 1560 1561 1562 1562 1563 1562 1560 1558 1557 1556 1556 1554 1552 1549 1547 1544 1540 1536 1531 1527 1522 1517 1511 1507
1520 1523 1531 1509 1509 1507 1507 1521 1500 1505 1505 1508 1511 1515 1519 1525 1535 1536 1537 1540 1545 1554 1557 1557 1556 1559 1562 1563 1564 1564 1562 1559 1557 1555 1554 1552 1550 1548 1545 1543 1539 1534 1530 1526 1520 1515 1509 1505 1500
1531 1537 1531 1524 1513 1512 1511 1516 1510 1507 1508 1507 1510 1514 1519 1524 1530 1532 1535 1540 1544 1549 1553 1558 1560 1560 1562 1563 1563 1563 1560 1557 1555 1553 1551 1549 1547 1544 1541 1538 1534 1529 1525 1520 1514 1509 1504 1498 1494
1537 1536 1532 1532 1521 1519 1519 1523 1516 1509 1510 1513 1515 1519 1523 1524 1526 1526 1530 1542 1548 1552 1557 1559 1561 1562 1561 1562 1563 1562 1559 1557 1555 1552 1549 1546 1543 1539 1536 1533 1529 1524 1519 1515 1510 1504 1500 1495 1489
1527 1530 1532 1524 1518 1524 1531 1529 1523 1516 1512 1517 1519 1523 1525 1526 1528 1530 1535 1543 1549 1553 1558 1562 1562 1563 1565 1563 1559 1563 1560 1556 1552 1549 1545 1542 1538 1535 1532 1529 1525 1520 1514 1509 1504 1498 1494 1491 1486
1525 1530 1532 1525 1520 1523 1529 1531 1527 1521 1521 1520 1522 1520 1521 1526 1527 1530 1536 1543 1551 1556 1560 1561 1560 1563 1563 1565 1558 1559 1558 1554 1551 1547 1542 1538 1535 1531 1528 1524 1520 1515 1509 1505 1501 1496 1490 1488 1486
1528 1530 1529 1530 1524 1525 1528 1533 1532 1527 1526 1521 1519 1521 1524 1526 1527 1531 1536 1543 1549 1554 1558 1553 1563 1564 1558 1552 1558 1558 1553 1551 1547 1542 1538 1534 1530 1527 1524 1519 1514 1509 1505 1500 1497 1493 1489 1485 1484
1532 1523 1525 1526 1533 1545 1533 1555 1538 1535 1532 1528 1526 1525 1527 1529 1531 1534 1539 1543 1546 1549 1553 1545 1553 1556 1553 1551 1555 1552 1549 1546 1541 1536 1532 1529 1526 1523 1518 1514 1509 1504 1501 1497 1493 1490 1486 1484 1480
1528 1523 1527 1529 1537 1540 1542 1551 1544 1536 1537 1536 1533 1530 1530 1531 1533 1536 1541 1544 1543 1537 1537 1542 1548 1552 1550 1548 1552 1549 1546 1543 1536 1531 1527 1524 1521 1519 1514 1509 1504 1500 1497 1494 1491 1487 1484 1481 1478
1525 1526 1534 1541 1546 1558 1545 1549 1549 1543 1537 1537 1537 1535 1534 1535 1537 1540 1542 1544 1547 1547 1541 1548 1549 1550 1547 1548 1548 1545 1539 1537 1530 1527 1522 1519 1517 1514 1510 1504 1500 1497 1495 1492 1488 1486 1482 1479 1476
1530 1543 1565 1563 1568 1564 1548 1552 1547 1534 1533 1535 1537 1538 1539 1539 1538 1541 1544 1547 1549 1548 1550 1550 1547 1547 1546 1547 1543 1538 1535 1532 1526 1521 1517 1515 1513 1509 1506 1501 1498 1496 1493 1491 1488 1484 1480 1477 1474
1532 1542 1565 1564 1571 1561 1547 1553 1545 1536 1535 1536 1540 1541 1540 1540 1541 1543 1544 1546 1546 1546 1548 1548 1548 1546 1544 1541 1537 1534 1530 1526 1521 1516 1514 1512 1509 1507 1504 1501 1498 1496 1493 1490 1486 1481 1477 1474 1471
1534 1544 1540 1558 1563 1567 1556 1542 1538 1538 1540 1541 1543 1542 1544 1544 1545 1546 1548 1549 1549 1548 1545 1546 1544 1542 1538 1535 1531 1528 1524 1520 1516 1515 1513 1510 1508 1505 1503 1500 1496 1494 1491 1488 1484 1480 1476 1472 1469
1533 1538 1551 1560 1561 1564 1559 1550 1548 1543 1543 1543 1545 1545 1546 1546 1546 1546 1547 1549 1549 1548 1546 1543 1541 1537 1533 1530 1526 1523 1520 1518 1515 1513 1511 1508 1506 1503 1500 1497 1495 1493 1490 1487 1483 1480 1475 1470 1468
1547 1550 1553 1558 1564 1568 1570 1557 1538 1538 1540 1543 1546 1548 1549 1550 1550 1548 1545 1546 1548 1547 1543 1540 1536 1533 1530 1527 1524 1522 1520 1517 1515 1512 1509 1506 1503 1500 1498 1495 1493 1491 1488 1485 1482 1479 1475 1471 1468
1540 1547 1556 1572 1563 1568 1572 1560 1538 1535 1540 1544 1546 1549 1551 1551 1551 1551 1549 1547 1547 1543 1539 1536 1534 1531 1529 1526 1525 1522 1519 1516 1513 1510 1507 1504 1501 1498 1496 1494 1492 1489 1487 1484 1481 1478 1476 1473 1469